Location: Apeadero de Los Molinos-Guadarrama
(40.7091°N, 4.0689°W)
Time: 23:59:00
(UTC+00:00)

ISS - Pass Details

Date: 05 October 2021
Orbit: 417 x 423 km, 51.6° (Epoch: 18 October)

Event Time Altitude Azimuth Distance (km) Brightness Sun altitude
Rises 19:56:58 0° 292° (WNW) 2,362 1.4 -24.4°
Reaches altitude 10° 19:59:31 10° 273° (W) 1,496 0.0 -24.9°
Enters shadow 20:01:47 18° 230° (SW) 1,114 -1.3 -25.3°
